Skip Page Navigation
NASA JPL Caltech
NASA Logo - Jet Propulsion Laboratory + View the NASA Portal
+ Center for Near-Earth Object Studies
JPL Home Earth Solar System Stars & Galaxies Technology
JPL Solar System Dynamics
BODIES ORBITS EPHEMERIDES TOOLS PHYSICAL DATA DISCOVERY FAQ SITE MAP
IMPORTANT: The SSD Announcement email list is now available. Major changes are coming in the near future, including possible hostname and/or URL changes. To be notified of such changes, subscribe to this email list.

Please visit this page for more details.


JPL Small-Body Database Browser
Search: [ help ]  
52996 (1998 UL32)
Classification: Main-belt Asteroid          SPK-ID: 2052996
Ephemeris | Orbit Diagram | Orbital Elements | Mission Design | Physical Parameters | Discovery Circumstances | Close-Approach Data ]

[ show orbit diagram ]
Orbital Elements at Epoch 2459000.5 (2020-May-31.0) TDB
Reference: JPL 27 (heliocentric ecliptic J2000)
 Element Value Uncertainty (1-sigma)   Units 
e .03582954282179903 3.7005e-08  
a 2.308827611224929 7.9714e-09 au
q 2.226103373460393 8.5485e-08 au
i 7.463691292488753 3.9144e-06 deg
node 56.71056806213267 2.7042e-05 deg
peri .6630487292575162 6.3404e-05 deg
M 59.58452244132733 5.5403e-05 deg
tp 2458788.411729671330
(2019-Oct-31.91172967)
0.00019742 TDB
period 1281.402857487103
3.51
6.6362e-06
1.817e-08
d
yr
n .2809420924079868 1.455e-09 deg/d
Q 2.391551848989465 8.257e-09 au
  Orbit Determination Parameters
   # obs. used (total)      1268  
   data-arc span      7757 days (21.24 yr)  
   first obs. used      1998-10-29  
   last obs. used      2020-01-24  
   planetary ephem.      DE431  
   SB-pert. ephem.      SB431-N16  
   condition code      0  
   norm. resid. RMS      .50765  
   source      ORB  
   producer      Otto Matic  
   solution date      2020-Feb-23 10:39:48  

Additional Information
 Earth MOID = 1.23768 au 
 Jupiter MOID = 2.71304 au 
 T_jup = 3.574 
[ show covariance matrix ]

Ephemeris | Orbit Diagram | Orbital Elements | Mission Design | Physical Parameters | Discovery Circumstances | Close-Approach Data ]

Physical Parameter Table
Parameter Symbol Value Units Sigma Reference Notes
absolute magnitude H 15.0   n/a MPO449343  

52996 (1998 UL32)          Discovered 1998-Oct-29 by BAO Schmidt CCD Asteroid Program at Xinglong
Reference: 20030216/Numbers.arcLast Updated: 2004-04-19

[ show close-approach data ]
Alternate Designations
 1998 UL32 = 1998 VT35 = 2000 GY106 
Ephemeris | Orbit Diagram | Orbital Elements | Mission Design | Physical Parameters | Discovery Circumstances | Close-Approach Data ]
ABOUT SSD CREDITS/AWARDS PRIVACY/COPYRIGHT GLOSSARY LINKS
FirstGov 2020-Apr-07 18:15 UT
(server date/time)  
NASA Home Page
Site Manager:   Ryan S. Park
Webmaster  Alan B. Chamberlin